Ana Sayfa
METAR-TAF:

METAR-TAF

Havaalanları :

Coleman, Teksas, Amerika Birleşik Devletleri

Enlem: 31-50-28N, Boylam: 099-24-12W, yükseklik: 517 m

Güncel hava durumu gözlemi

Rapor saat 09:36 UTC de 19 dakika önce yapıldı.
Rüzgar kuzeydan 10 kt
Sıcaklık 7°C
Nem 76%
Basınç 1013 hPa
Görüş mesafesi: 16.1 km
Açık gökyüzü

METAR: KCOM 250936Z AUTO 01010KT 10SM CLR 07/03 A2991 RMK AO2

Saat: 02:55 (09:55 UTC)


TAF: eksik

4.000'den fazla havaalanı için hava durumu gözlemleri ve tahminleri (METAR ve TAF raporları).

Kullanılabilir istasyonlar harita üzerinde sarı ve kırmızı noktalarla gösterilir.

İstasyonun adını görmek için fareyi noktanın üzerinde gezdirin.

Sonrasında hava gözlem ve tahminlerini görmek için tıklayın.

Haritayı değiştirmek için: yaklaştırmak için siyah artı işaretli yeşil düğmeye ve uzaklaştırmak için de eksi işaretli düğmeye hızla tıklayın; bitişik haritalar için yeşil okları kullanın.


METAR-TAF: